EW7144 Weather Reports


time (UTC)temp
F
wind
direction
speed
knots
gust
knots
rain 1hr
in
rain 24hr
in
rain mn
in
humidity
%
barometer
mb
20260508032907 62 12 12.2 30.4 0.09 2.28 0.80 90 1002.0
20260508032406 62 13 18.2 31.3 0.09 2.28 0.80 90 1002.2
20260508031907 62 16 16.5 30.4 0.10 2.28 0.80 90 1002.5
20260508031406 62 4 14.8 22.6 0.10 2.27 0.80 90 1002.7
20260508030906 62 32 16.5 33.9 0.10 2.27 0.80 90 1002.9
20260508030406 62 11 18.2 30.4 0.10 2.27 0.80 90 1002.9
20260508025906 62 5 12.2 26.1 0.09 2.26 0.79 90 1002.8
20260508025406 62 16 10.4 26.1 0.10 2.26 0.79 90 1002.8
20260508024906 62 21 12.2 26.1 0.10 2.25 0.78 90 1003.0
20260508024406 62 22 8.7 17.4 0.09 2.24 0.76 90 1002.9
20260508023906 62 16 13.0 22.6 0.07 2.21 0.74 90 1003.2
20260508022906 62 16 8.7 19.1 0.05 2.19 0.72 89 1003.7
20260508021906 63 13 9.6 20.9 0.03 2.17 0.70 90 1004.1
20260508021406 63 18 11.3 26.1 0.02 2.17 0.69 89 1004.1
20260508020906 63 19 12.2 24.3 0.02 2.17 0.69 89 1004.4
20260508020407 63 16 11.3 28.7 0.02 2.17 0.69 89 1004.4
20260508015908 63 15 8.7 30.4 0.02 2.17 0.69 89 1004.5
20260508015407 63 14 11.3 30.4 0.02 2.16 0.69 89 1004.6
20260508014407 63 18 9.6 17.4 0.02 2.15 0.68 89 1005.0
20260508013908 63 23 6.1 31.3 0.01 2.14 0.67 89 1005.2
20260508013407 63 10 8.7 22.6 0.01 2.14 0.67 89 1005.3
20260508011907 63 14 10.4 20.0 0.01 2.14 0.67 89 1005.7
20260508011407 63 25 8.7 20.9 0.01 2.15 0.67 89 1005.8
20260508010908 63 4 8.7 21.7 0.01 2.16 0.67 89 1006.0
20260508010407 63 16 11.3 25.2 0.01 2.16 0.67 89 1006.2
20260508005906 63 13 10.4 22.6 0.01 2.16 0.67 89 1006.2
20260508005408 63 19 10.4 19.1 0.00 2.16 0.66 89 1006.4
20260508004907 63 19 8.7 15.6 0.00 2.16 0.66 89 1006.4
20260508004408 63 16 8.7 19.1 0.00 2.16 0.66 89 1006.6
20260508003907 63 24 11.3 28.7 0.00 2.16 0.66 89 1006.8
20260508003406 63 22 7.0 19.1 0.00 2.16 0.66 89 1007.0
20260508002406 63 15 12.2 22.6 0.00 2.16 0.66 90 1007.3
20260508001906 63 24 9.6 20.0 0.00 2.16 0.66 90 1007.4
20260508000906 63 18 8.7 26.1 0.00 2.16 0.66 90 1007.7
20260508000406 63 31 14.8 26.9 0.00 2.16 0.66 90 1007.9
20260507235906 63 11 7.0 15.6 0.00 2.16 0.66 90 1007.9
20260507234906 63 16 12.2 20.9 0.00 2.17 0.66 90 1008.0
20260507234406 63 18 10.4 20.9 0.01 2.18 0.66 90 1008.1
20260507233907 63 26 12.2 22.6 0.01 2.20 0.66 90 1008.2
20260507233406 63 8 14.8 30.4 0.01 2.20 0.66 90 1008.4
20260507232408 63 4 13.9 22.6 0.01 2.20 0.66 91 1008.4
20260507231406 63 4 13.9 22.6 0.01 2.20 0.66 91 1008.6
20260507230908 63 356 13.0 25.2 0.01 2.20 0.66 91 1008.8
20260507225906 63 13 14.8 21.7 0.01 2.20 0.66 91 1008.8
20260507225406 63 13 10.4 19.1 0.01 2.20 0.66 91 1008.7
20260507224908 63 15 8.7 18.2 0.01 2.20 0.66 91 1008.8
20260507224407 63 9 11.3 26.1 0.01 2.19 0.65 91 1008.9
20260507223408 63 14 13.9 26.9 0.02 2.19 0.65 91 1009.0
20260507222906 63 18 13.9 24.3 0.02 2.19 0.65 91 1009.1
20260507222406 63 0 14.8 26.1 0.02 2.19 0.65 91 1009.2
20260507221906 63 11 14.8 26.9 0.02 2.19 0.65 91 1009.2
20260507221406 63 20 17.4 26.1 0.02 2.19 0.65 91 1009.3
20260507220406 63 1 12.2 26.9 0.02 2.19 0.65 91 1009.4
20260507215906 63 11 13.9 25.2 0.02 2.19 0.65 91 1009.3
20260507214906 64 3 13.9 26.1 0.02 2.19 0.65 91 1009.4
20260507214406 64 12 17.4 31.3 0.01 2.18 0.65 92 1009.5
20260507213906 64 6 13.9 22.6 0.00 2.17 0.64 92 1009.7
20260507213406 64 24 14.8 24.3 0.00 2.17 0.64 92 1009.6
20260507212906 64 9 11.3 25.2 0.00 2.17 0.64 92 1009.6
20260507212406 64 17 13.9 25.2 0.00 2.17 0.64 92 1009.6
20260507211906 64 0 14.8 28.7 0.00 2.17 0.64 92 1009.7
20260507211406 64 8 11.3 21.7 0.00 2.17 0.64 92 1009.8
20260507210906 64 0 14.8 25.2 0.00 2.17 0.64 92 1009.8
20260507210406 64 357 9.6 20.0 0.00 2.17 0.64 92 1009.9
20260507205406 64 1 10.4 17.4 0.00 2.17 0.64 92 1010.0
20260507204906 64 19 9.6 25.2 0.00 2.17 0.64 92 1009.8
20260507204406 64 11 10.4 21.7 0.00 2.17 0.64 92 1009.8
20260507203906 64 8 6.1 21.7 0.00 2.17 0.64 92 1009.9
20260507203406 64 7 12.2 22.6 0.00 2.17 0.64 92 1009.8
20260507202407 64 346 6.1 14.8 0.00 2.17 0.64 92 1009.8
20260507201908 64 9 5.2 13.9 0.00 2.17 0.64 92 1009.7
20260507201406 64 11 7.0 18.2 0.00 2.17 0.64 92 1009.7
20260507200907 64 4 7.8 17.4 0.00 2.17 0.64 92 1009.7
20260507195407 64 358 6.1 18.2 0.01 2.17 0.64 92 1009.7
20260507194906 64 350 10.4 17.4 0.01 2.17 0.64 92 1009.7
20260507194407 64 0 5.2 13.0 0.03 2.17 0.64 92 1009.7
20260507193407 64 351 7.8 17.4 0.06 2.17 0.64 92 1009.6
20260507191406 64 8 5.2 15.6 0.09 2.17 0.64 92 1009.8
20260507190906 64 346 9.6 17.4 0.10 2.17 0.64 92 1009.8
20260507190406 64 339 10.4 15.6 0.10 2.17 0.64 92 1009.8
20260507185906 63 352 5.2 11.3 0.11 2.17 0.63 92 1009.7
20260507185406 63 341 6.1 14.8 0.13 2.17 0.63 92 1009.8
20260507184906 63 347 7.8 13.0 0.15 2.17 0.63 92 1009.9
20260507184406 63 346 7.0 15.6 0.15 2.14 0.61 92 1010.0
20260507183906 63 344 7.0 21.7 0.20 2.13 0.59 92 1010.2
20260507183407 63 351 7.8 17.4 0.26 2.11 0.57 92 1010.1
20260507182407 63 2 6.1 17.4 0.27 2.10 0.57 92 1010.2
20260507181907 63 340 7.8 14.8 0.27 2.09 0.56 92 1010.2
20260507181407 63 356 5.2 17.4 0.27 2.09 0.55 92 1010.3
20260507180908 63 353 8.7 14.8 0.25 2.07 0.54 92 1010.3
20260507180407 63 356 6.1 13.0 0.26 2.07 0.54 92 1010.4
20260507175907 63 12 7.8 18.2 0.26 2.06 0.52 92 1010.5
20260507175408 63 7 6.1 14.8 0.25 2.04 0.50 92 1010.4
20260507174906 64 3 8.7 17.4 0.24 2.02 0.48 92 1010.4
20260507174407 64 6 5.2 21.7 0.23 1.99 0.46 92 1010.5
20260507173907 64 354 4.3 13.0 0.18 1.93 0.39 92 1010.6
20260507173407 64 0 1.7 8.7 0.11 1.85 0.31 92 1010.5
20260507172907 64 0 6.1 13.9 0.11 1.84 0.31 92 1010.6
20260507171406 64 355 8.7 17.4 0.11 1.82 0.28 92 1010.9
20260507170407 64 354 7.0 17.4 0.10 1.81 0.28 92 1011.1
20260507165908 64 334 10.4 18.2 0.09 1.80 0.26 92 1011.1
20260507165406 64 343 5.2 14.8 0.09 1.79 0.25 92 1011.2
20260507164907 64 7 5.2 10.4 0.09 1.78 0.24 92 1011.2
20260507164408 64 341 8.7 17.4 0.07 1.76 0.23 92 1011.1
20260507163907 64 9 10.4 19.1 0.06 1.75 0.21 92 1011.1
20260507163407 64 9 6.1 19.1 0.05 1.74 0.20 92 1011.2
20260507162907 64 12 7.0 15.6 0.04 1.73 0.20 92 1011.1
20260507162406 64 6 8.7 19.1 0.03 1.72 0.19 92 1011.1
20260507161907 64 355 10.4 19.1 0.02 1.72 0.18 92 1011.1
20260507161407 64 340 9.6 17.4 0.02 1.71 0.17 92 1011.2
20260507160907 64 349 8.7 17.4 0.02 1.71 0.17 92 1011.2
20260507160406 64 350 7.8 15.6 0.02 1.71 0.17 92 1011.3
20260507155907 64 6 7.8 19.1 0.01 1.70 0.17 92 1011.4
20260507155406 64 352 7.8 18.2 0.01 1.70 0.17 92 1011.4
20260507154907 64 11 5.2 14.8 0.00 1.70 0.16 92 1011.4
20260507154407 64 351 6.1 13.9 0.00 1.70 0.16 92 1011.5
20260507153906 64 348 6.1 18.2 0.00 1.72 0.16 92 1011.5
20260507152908 64 353 6.1 20.0 0.00 1.73 0.16 92 1011.6
20260507152407 64 5 8.7 13.9 0.00 1.74 0.16 92 1011.7
20260507151907 64 0 10.4 21.7 0.00 1.76 0.16 92 1011.7
20260507150908 64 359 7.8 18.2 0.01 1.79 0.16 92 1011.9
20260507150407 64 23 7.0 17.4 0.01 1.79 0.16 92 1012.1
20260507145407 64 337 7.8 17.4 0.01 1.80 0.16 92 1012.3
20260507144907 64 1 6.1 13.9 0.01 1.80 0.16 92 1012.3
20260507144407 64 345 7.8 17.4 0.01 1.80 0.16 92 1012.5
20260507143907 64 11 7.0 19.1 0.02 1.80 0.16 92 1012.5
20260507143406 64 0 3.5 13.0 0.02 1.80 0.16 92 1012.5
20260507142906 64 353 7.0 17.4 0.04 1.80 0.16 92 1012.6
20260507142406 64 351 7.8 17.4 0.06 1.80 0.16 92 1012.7
20260507141906 64 20 6.1 17.4 0.06 1.80 0.16 92 1012.8
20260507141406 64 2 8.7 15.6 0.07 1.80 0.16 92 1012.8
20260507140906 64 12 7.8 13.9 0.07 1.79 0.15 92 1012.9
20260507140406 64 339 4.3 13.0 0.07 1.79 0.15 92 1012.9
20260507135907 64 0 5.2 15.6 0.08 1.79 0.15 92 1013.0
20260507135408 64 27 5.2 13.9 0.09 1.79 0.15 92 1013.1
20260507134907 64 348 7.0 17.4 0.10 1.79 0.15 92 1013.1
20260507134407 64 6 5.2 21.7 0.11 1.79 0.15 92 1013.1
20260507133906 64 0 6.1 13.9 0.11 1.78 0.14 92 1013.1
20260507132907 64 353 7.0 17.4 0.09 1.76 0.12 92 1013.4
20260507132407 64 0 4.3 17.4 0.09 1.74 0.10 92 1013.3
20260507131908 64 4 6.1 12.2 0.08 1.73 0.09 92 1013.4
20260507131406 64 339 7.8 15.6 0.08 1.72 0.09 92 1013.4
20260507130906 64 2 9.6 17.4 0.08 1.72 0.08 92 1013.5
20260507125906 64 345 7.8 17.4 0.89 1.71 0.07 92 1013.5
20260507125406 64 350 6.1 22.6 0.88 1.70 0.06 92 1013.6
20260507124906 64 9 7.8 22.6 0.87 1.69 0.05 92 1013.6
20260507123906 64 357 7.8 17.4 0.86 1.67 0.03 92 1013.7
20260507123406 64 351 8.7 17.4 0.87 1.67 0.03 92 1013.7
20260507121906 64 358 7.0 14.8 0.85 1.65 0.02 92 1013.7
20260507121406 64 359 7.8 19.1 0.84 1.65 0.01 92 1013.8
20260507120906 64 356 8.7 13.9 0.83 1.64 0.00 92 1013.9
20260507120406 64 7 9.6 22.6 0.83 1.64 0.00 92 1013.8
20260507115906 64 353 9.6 18.2 0.02 0.83 0.82 92 1013.9
20260507113906 64 358 9.6 21.7 0.05 0.82 0.81 92 1014.1
20260507113406 64 356 12.2 19.1 0.06 0.81 0.80 92 1014.1
20260507112906 64 5 12.2 22.6 0.06 0.81 0.80 92 1014.2
20260507111906 64 341 8.7 19.1 0.09 0.81 0.80 92 1014.3
20260507111406 64 330 10.4 19.1 0.09 0.81 0.80 92 1014.4
20260507110406 64 348 10.4 20.0 0.13 0.81 0.80 92 1014.5
20260507105906 64 343 10.4 21.7 0.13 0.81 0.80 92 1014.4
20260507104906 64 338 12.2 22.6 0.15 0.80 0.79 92 1014.4
20260507103906 63 355 6.1 17.4 0.15 0.77 0.76 91 1014.3
20260507103406 63 2 5.2 14.8 0.14 0.75 0.74 91 1014.4
20260507102906 63 6 6.1 13.9 0.15 0.75 0.74 91 1014.5
20260507102406 63 355 7.8 14.8 0.15 0.74 0.73 91 1014.4
20260507101905 63 345 8.7 21.7 0.13 0.72 0.71 91 1014.4
20260507101405 64 2 8.7 20.9 0.13 0.72 0.71 91 1014.5
20260507100906 64 10 8.7 19.1 0.13 0.70 0.69 91 1014.5
20260507095906 63 341 4.3 11.3 0.11 0.68 0.67 91 1014.4
20260507094906 63 350 6.1 18.2 0.10 0.65 0.64 91 1014.5
20260507094406 63 14 8.7 21.7 0.11 0.64 0.63 91 1014.4
20260507092907 63 9 5.2 14.8 0.09 0.60 0.59 91 1014.4
20260507091907 63 357 10.4 20.9 0.09 0.59 0.58 91 1014.5
20260507091406 63 9 7.0 21.7 0.09 0.58 0.57 91 1014.5
20260507090906 63 8 7.8 18.2 0.09 0.57 0.57 91 1014.5
20260507090406 63 11 6.1 15.6 0.09 0.57 0.56 91 1014.5
20260507085906 63 26 7.0 20.9 0.10 0.57 0.56 91 1014.5
20260507085406 63 12 8.7 19.1 0.09 0.56 0.55 91 1014.6
20260507084906 63 9 12.2 26.9 0.09 0.54 0.54 91 1014.8
20260507084406 63 17 7.8 22.6 0.08 0.53 0.52 91 1014.7
20260507083906 63 357 11.3 22.6 0.07 0.51 0.50 91 1014.8
20260507083406 63 349 7.8 25.2 0.08 0.51 0.50 91 1014.7
20260507082406 63 7 10.4 20.0 0.07 0.50 0.50 91 1014.8
20260507081906 63 351 7.8 14.8 0.06 0.50 0.49 91 1014.8
20260507081406 63 4 12.2 22.6 0.07 0.50 0.49 91 1014.9
20260507080905 63 3 11.3 21.7 0.06 0.49 0.48 91 1014.9
20260507080406 63 4 12.2 22.6 0.06 0.48 0.47 91 1014.8
20260507075906 63 17 7.0 18.2 0.05 0.46 0.46 91 1014.8
20260507075406 63 8 9.6 18.2 0.05 0.46 0.46 91 1015.0
20260507074906 63 11 13.9 24.3 0.03 0.45 0.44 91 1015.0
20260507073906 63 338 10.4 21.7 0.02 0.44 0.43 91 1014.9
20260507073406 63 14 8.7 20.0 0.03 0.43 0.43 91 1015.0
20260507072906 63 17 12.2 24.3 0.04 0.43 0.43 91 1015.0
20260507072406 63 14 12.2 20.9 0.05 0.43 0.43 91 1015.1
20260507071906 63 11 12.2 25.2 0.05 0.43 0.43 91 1014.9
20260507071406 63 6 12.2 27.8 0.06 0.43 0.42 91 1014.7
20260507070906 63 8 12.2 31.3 0.06 0.43 0.42 91 1014.8
20260507070406 63 7 7.8 17.4 0.07 0.42 0.41 91 1014.8
20260507065906 63 7 8.7 18.2 0.09 0.42 0.41 91 1014.8
20260507065406 63 3 7.8 22.6 0.11 0.42 0.41 91 1014.9
20260507064906 63 10 11.3 22.6 0.13 0.42 0.41 91 1014.9
20260507064406 63 10 6.1 22.6 0.15 0.42 0.41 91 1015.0
20260507063905 63 7 13.0 28.7 0.16 0.42 0.41 91 1015.1
20260507063406 63 12 12.2 22.6 0.16 0.40 0.39 91 1015.2
20260507062906 63 19 13.0 30.4 0.16 0.39 0.39 91 1015.3
20260507062405 63 5 11.3 24.3 0.16 0.39 0.38 91 1015.3
20260507061406 63 14 10.4 19.1 0.18 0.37 0.36 91 1015.2
20260507060406 63 20 7.0 20.0 0.16 0.35 0.34 91 1015.3
20260507055905 63 355 4.3 17.4 0.14 0.33 0.32 90 1015.4
20260507055408 63 1 4.3 18.2 0.13 0.31 0.30 90 1015.4
20260507054906 63 4 8.7 19.1 0.11 0.29 0.28 90 1015.5
20260507054406 63 1 7.8 17.4 0.09 0.27 0.26 90 1015.4
20260507053906 63 7 14.8 26.1 0.08 0.26 0.25 90 1015.6
20260507053406 63 359 7.8 19.1 0.06 0.24 0.24 90 1015.6
20260507052906 63 350 8.7 18.2 0.06 0.24 0.23 90 1015.7
20260507052406 63 354 12.2 20.9 0.05 0.23 0.22 90 1015.8
20260507051905 63 341 10.4 21.7 0.02 0.20 0.19 90 1015.8
20260507051406 63 6 5.2 14.8 0.02 0.19 0.18 90 1015.7
20260507050906 63 350 10.4 20.0 0.02 0.19 0.18 90 1015.7
20260507050406 63 1 9.6 15.6 0.02 0.19 0.18 90 1015.7
20260507045905 63 357 6.1 18.2 0.02 0.19 0.18 90 1015.6
20260507045406 63 13 7.8 13.9 0.01 0.18 0.17 90 1015.5
20260507044406 63 354 7.8 17.4 0.01 0.18 0.17 90 1015.5
20260507043906 63 359 9.6 20.9 0.01 0.18 0.17 90 1015.6
20260507043405 63 18 8.7 25.2 0.01 0.18 0.17 90 1015.6
20260507042906 63 20 7.0 14.8 0.01 0.18 0.17 89 1015.7
20260507042406 63 14 9.6 17.4 0.01 0.18 0.17 89 1015.8
20260507041906 63 6 13.9 22.6 0.00 0.17 0.17 89 1015.7
20260507041406 63 8 13.0 20.0 0.00 0.17 0.17 90 1015.8
20260507040905 63 357 10.4 19.1 0.00 0.17 0.17 89 1016.0
20260507040405 63 20 7.8 18.2 0.00 0.17 0.17 90 1016.1
20260507034906 63 359 8.7 17.4 0.00 0.17 0.17 90 1016.0
20260507034406 63 0 7.8 14.8 0.00 0.17 0.17 90 1016.1
20260507033906 63 7 7.8 14.8 0.00 0.17 0.17 90 1016.1